Temperature
15 15 15 15 15 15 15 15 15 15 15 15 15 15 15 15 15 15 15 15 15 15 15 15 15 15 15 15 15 15 15 15 15 15 15 15 15 15 15 15 15 14 14
15 15 15 15 15 15 15 15 15 15 15 15 15 15 15 15 15 15 15 15 15 15 15 15 15 15 15 15 15 15 15 15 15 15 15 15 14 14 14 14 14 14 14
15 15 15 15 15 15 15 15 15 15 15 14 15 15 15 15 14 14 15 15 15 14 14 15 15 15 15 15 15 15 15 14 14 14 14 14 14 14 14 14 14 14 14
15 15 15 15 15 15 15 15 15 15 14 14 14 14 15 15 15 15 14 14 14 14 14 14 14 14 14 14 14 14 14 14 14 14 14 14 14 14 14 14 14 14 14
15 15 15 14 15 15 15 15 15 14 14 14 14 14 14 14 14 14 14 14 14 14 14 14 14 14 14 14 14 14 14 14 14 14 14 14 14 14 14 14 14 14 14
14 15 15 14 14 15 14 15 14 14 14 14 14 14 14 14 14 14 14 14 14 14 14 14 14 14 14 14 14 14 14 14 14 14 13 13 13 13 13 13 13 13 13
14 14 14 14 14 14 14 14 14 14 14 14 14 14 14 14 14 14 14 14 14 14 14 14 14 13 13 14 14 14 14 14 14 14 13 13 13 13 13 13 13 13 13
14 14 14 14 14 14 14 14 14 14 14 14 14 14 14 14 14 14 14 14 13 13 13 13 13 13 13 13 13 13 13 13 13 13 13 13 13 13 13 13 13 13 13
14 14 14 14 14 14 14 14 14 14 14 14 14 14 14 14 14 14 14 14 13 13 13 13 13 13 13 13 13 13 13 13 13 13 13 13 13 13 12 13 13 13 13
13 13 14 14 13 14 14 14 14 14 14 14 14 14 14 14 14 14 14 13 13 13 13 13 13 13 13 13 13 13 13 13 13 13 13 13 12 12 12 12 12 12 12
13 13 13 13 13 13 13 13 13 13 13 13 13 13 13 13 13 13 13 13 13 13 13 13 13 13 13 13 13 13 13 13 13 13 13 13 12 12 12 12 12 12 12
13 13 13 13 13 13 13 13 13 13 13 13 13 13 13 13 13 13 13 13 13 13 12 12 13 13 13 13 13 13 13 13 12 12 12 12 12 12 12 12 12 12 12
12 12 12 13 13 13 13 13 13 13 13 13 12 12 12 13 13 12 13 12 12 12 12 12 12 12 12 12 12 12 12 12 12 12 12 12 12 12 12 12 12 11 11
12 12 12 12 12 12 12 12 12 12 12 12 12 12 12 12 12 12 12 12 12 12 12 12 12 12 12 12 12 12 12 12 12 12 12 12 12 12 12 12 12 11 11
12 12 12 12 12 12 12 12 12 12 12 12 12 12 12 12 12 12 11 11 11 11 11 11 11 11 12 12 11 11 11 12 12 12 12 12 11 11 11 11 11 11 11
11 11 12 12 11 11 11 12 11 11 11 11 11 11 11 11 11 11 11 11 11 11 11 11 11 11 11 11 11 11 11 11 11 11 11 11 11 11 11 11 11 11 11
11 11 11 11 11 11 11 11 11 11 11 11 11 11 11 11 11 11 11 11 10 10 10 10 10 10 10 10 11 11 11 11 11 11 11 11 11 11 10 10 10 10 10
11 11 11 11 11 11 11 11 10 10 10 10 10 10 10 10 10 10 10 10 10 10 10 10 10 10 10 10 10 10 10 10 10 10 10 10 10 10 10 10 10 10 10
10 10 11 11 11 10 10 10 10 10 10 10 10 10 10 10 10 10 9 9 9 9 9 9 9 9 9 9 9 10 10 10 10 10 10 10 10 10 10 10 10 10 10
10 10 10 10 10 10 10 10 10 9 9 9 9 9 9 9 9 9 9 9 9 9 9 9 9 9 9 9 9 9 9 9 9 9 9 9 9 9 9 9 9 9 9
10 10 9 9 9 9 10 10 9 9 9 9 9 9 9 9 9 9 9 9 8 8 8 8 8 8 8 8 8 8 8 8 8 9 9 9 9 9 9 9 9 9 9
9 9 9 9 9 9 9 9 9 9 9 8 8 8 8 8 8 8 8 8 8 8 8 8 8 8 7 7 7 7 7 7 7 8 8 8 8 8 8 8 8 8 8
9 9 9 9 9 9 9 8 8 8 8 8 8 8 8 8 7 7 7 7 7 7 7 7 7 7 7 7 7 6 6 6 6 7 7 7 7 7 7 7 7 7 7
9 9 9 8 8 8 8 8 8 8 8 8 8 7 7 7 7 7 7 7 7 7 7 7 7 6 6 6 6 6 6 6 6 6 6 6 6 6 6 6 7 7 7
8 8 8 8 8 8 8 8 7 7 7 7 7 7 7 7 7 7 6 6 6 6 6 6 6 6 6 6 5 5 5 5 5 5 5 6 6 6 6 6 6 6 6
8 8 8 8 7 7 7 7 7 7 7 7 7 7 7 6 6 6 6 6 6 6 6 5 5 5 5 5 5 5 5 5 5 4 4 5 5 6 6 5 5 5 5
Wind_Speed
1 1 5 8 9 11 11 12 12 13 13 13 13 13 14 14 14 13 14 13 13 13 14 14 14 14 14 15 15 15 14 14 14 14 14 14 14 14 14 14 14 13 14
3 3 7 9 10 11 11 12 12 12 12 13 13 13 13 13 13 13 13 13 13 12 12 13 13 13 13 14 14 14 14 14 14 14 13 13 13 13 13 13 13 12 13
3 4 7 10 10 11 11 12 11 11 12 12 12 12 12 12 12 12 12 12 12 12 12 12 12 12 13 13 13 13 13 13 13 12 11 11 11 12 12 12 12 12 12
5 5 7 10 11 11 11 11 11 11 12 12 12 12 11 11 11 11 12 12 12 12 12 11 11 11 11 12 12 12 12 12 12 11 10 10 9 11 11 11 10 10 10
5 6 7 11 11 11 11 11 11 11 12 12 12 12 11 11 11 11 11 11 11 11 11 11 11 10 10 10 10 10 10 10 10 10 9 9 8 9 9 9 9 9 9
5 6 8 11 11 11 11 11 11 11 11 11 11 11 11 11 11 10 10 10 10 10 10 10 10 10 9 9 9 9 9 8 8 8 8 7 6 7 8 7 7 7 7
5 6 8 11 11 11 10 11 11 11 11 11 11 11 11 10 10 10 10 10 9 9 9 8 8 8 9 8 8 7 7 7 7 7 6 6 5 5 6 5 5 5 5
6 7 8 10 11 11 11 11 11 11 11 11 10 10 10 10 10 9 9 9 9 9 9 8 8 7 7 7 7 6 6 6 6 5 5 4 4 4 4 4 4 3 3
7 7 7 8 9 10 11 11 11 10 10 10 10 10 10 9 9 9 8 8 8 8 8 8 7 7 6 6 6 6 5 5 5 4 4 4 4 4 3 3 3 2 2
6 6 6 8 8 9 10 10 11 11 11 11 11 10 10 9 9 8 8 8 7 7 7 7 7 6 6 6 6 6 5 4 4 3 3 3 3 3 3 3 3 2 2
4 4 5 6 7 8 9 9 10 10 10 10 10 10 9 9 8 8 8 8 7 7 7 7 7 6 6 6 6 6 5 4 3 3 2 2 3 2 2 2 2 2 2
3 3 3 5 6 7 7 8 8 8 8 9 8 8 8 8 7 7 7 8 7 7 7 7 7 7 6 6 5 5 4 4 3 2 2 2 2 3 3 3 2 2 2
4 3 2 3 5 6 6 6 6 6 7 7 7 7 7 7 7 7 6 6 6 6 7 7 7 6 6 5 5 5 4 4 3 3 3 3 3 3 3 3 3 2 2
4 3 2 3 4 5 6 5 5 5 5 5 5 6 6 5 5 5 5 5 5 5 6 6 5 5 5 4 4 4 4 3 3 4 4 4 3 4 4 3 3 3 2
4 3 2 3 3 4 5 4 4 4 4 4 5 5 5 4 3 4 4 5 5 5 4 4 4 4 4 4 3 3 3 3 3 4 4 5 5 4 4 4 4 3 3
4 3 2 3 3 4 3 3 3 4 4 4 4 4 5 4 3 3 3 4 4 4 3 3 3 3 3 3 3 3 2 3 3 3 4 4 5 5 5 5 5 5 4
4 3 3 3 3 3 3 3 3 4 4 4 3 3 4 4 3 3 2 2 3 3 3 3 3 3 3 3 3 3 2 2 2 3 3 3 4 5 5 6 6 6 6
3 3 3 3 4 3 3 3 3 4 4 3 3 3 3 3 3 3 2 1 3 3 3 2 2 2 2 2 3 3 3 2 2 2 2 3 3 4 5 6 6 6 7
4 4 3 3 4 3 3 3 4 4 4 3 3 3 3 3 3 3 2 2 2 3 2 2 2 1 2 2 3 3 2 2 3 2 2 2 3 3 4 5 6 7 7
4 4 4 4 3 3 3 3 3 3 3 3 3 3 3 3 3 3 2 2 3 2 1 1 1 1 1 2 2 3 3 3 2 2 2 2 2 3 4 5 5 6 8
3 4 4 4 3 3 2 2 2 1 1 1 2 3 3 3 2 2 2 2 2 1 0 1 1 1 1 2 2 3 3 2 2 2 2 2 3 3 3 4 5 6 6
5 5 4 4 4 4 3 2 1 2 1 1 2 3 3 3 2 1 1 1 1 1 1 1 1 0 1 2 1 2 3 3 3 2 2 2 3 3 3 4 5 5 6
5 5 5 5 4 3 3 2 3 3 2 1 1 1 2 2 2 1 1 0 0 1 1 1 1 1 1 1 1 0 0 2 4 3 3 3 3 3 4 4 5 5 5
6 4 4 4 4 3 4 4 4 3 1 1 1 0 2 2 2 2 1 1 0 0 1 1 1 1 1 1 2 1 1 1 2 4 4 3 3 3 4 5 5 5 5
4 4 4 4 4 3 3 4 4 2 1 1 1 1 1 2 3 2 2 1 1 1 1 1 1 1 1 2 2 1 1 2 2 2 5 5 4 3 3 4 4 5 4
3 3 4 4 4 3 3 3 4 4 3 2 1 1 0 1 1 3 2 2 1 1 1 1 1 1 1 2 2 2 1 2 2 2 4 5 5 4 4 3 3 4 4
Wind_Direction
209 218 131 116 113 107 100 95 91 90 92 94 94 93 91 90 87 85 83 81 80 79 77 77 77 76 78 78 77 75 74 75 74 74 73 74 76 75 72 71 68 66 69
164 159 136 123 117 111 104 98 94 92 92 93 94 93 92 91 88 86 83 79 78 77 76 76 78 78 79 78 77 75 74 75 76 73 71 72 74 75 74 72 70 70 70
117 133 134 128 123 116 110 105 100 96 94 92 92 93 93 91 89 86 84 82 80 77 76 77 80 81 82 81 78 76 75 75 76 73 67 62 69 75 75 72 71 68 68
112 117 125 128 125 120 115 109 105 100 96 93 92 92 92 91 89 87 85 82 80 78 76 76 79 83 84 82 80 77 76 75 75 69 60 57 64 73 74 71 69 66 66
98 107 127 127 125 121 117 113 109 104 101 96 94 91 89 88 89 88 88 85 81 79 78 76 77 81 83 83 81 78 76 77 72 65 58 56 60 69 72 70 67 65 66
94 101 122 124 123 123 120 114 110 107 104 99 96 93 90 87 87 87 87 86 85 84 81 77 77 78 80 82 82 79 77 78 71 64 57 52 56 65 67 69 66 64 65
100 99 119 122 120 119 119 115 110 106 103 99 95 92 90 88 86 86 85 84 83 82 82 79 77 77 76 76 78 79 79 79 74 65 57 51 51 61 64 65 66 66 63
101 94 107 118 117 116 113 112 111 107 103 99 95 91 88 86 84 85 84 82 81 78 76 75 76 75 73 71 69 74 81 80 76 64 51 46 44 46 55 60 60 60 61
88 87 90 106 112 112 108 106 105 103 102 99 95 91 87 84 82 81 81 81 79 77 73 69 70 68 67 65 64 64 71 77 73 59 44 39 32 23 29 39 48 58 62
80 80 84 96 99 100 102 103 102 100 98 95 93 90 86 79 76 75 72 73 71 68 65 61 60 60 58 59 57 56 55 57 62 48 33 21 17 7 5 21 34 29 31
93 77 81 88 93 98 101 100 98 97 95 93 90 89 84 76 70 66 65 63 61 60 57 53 51 52 54 54 50 48 48 47 46 34 18 9 7 0 347 352 13 15 1
135 112 89 95 97 99 102 96 91 93 93 91 90 89 84 78 70 66 63 57 53 54 51 46 41 43 47 46 40 43 46 32 33 16 353 352 351 347 336 331 328 334 341
151 127 102 101 103 100 96 95 86 86 88 88 90 91 86 78 67 60 58 51 47 46 44 38 40 40 44 42 39 41 39 34 25 8 351 344 333 324 316 315 317 317 332
146 142 119 103 103 104 104 101 95 89 86 85 88 92 85 71 61 52 47 41 39 38 37 37 39 38 40 36 38 37 29 25 14 3 355 350 337 324 312 303 309 305 316
152 148 148 111 108 108 104 102 100 96 98 96 94 93 90 83 75 61 45 36 30 29 29 32 38 38 36 33 30 31 19 6 0 355 350 350 346 337 324 315 311 309 301
161 159 148 122 111 111 112 110 104 103 103 95 89 93 97 92 83 71 54 37 26 22 20 29 35 36 30 32 24 12 360 352 356 347 339 341 343 339 327 317 310 307 304
168 160 147 138 113 115 118 118 111 105 99 88 82 92 96 93 87 79 72 43 21 25 36 43 37 38 32 21 360 353 358 350 341 333 326 335 337 335 331 320 311 305 300
153 154 151 138 124 117 108 104 103 101 97 89 87 84 87 92 91 79 75 39 22 41 46 52 40 19 7 360 343 334 343 345 339 329 330 332 336 334 333 330 322 314 310
162 159 149 131 129 122 105 94 90 89 85 85 85 78 82 91 94 86 76 41 44 53 50 42 24 13 356 344 329 330 334 328 325 337 344 339 332 331 331 329 327 322 316
157 153 149 132 126 115 103 92 85 82 71 72 71 71 79 81 87 86 71 43 54 66 40 31 21 11 1 333 332 331 316 310 326 328 314 332 334 331 332 333 333 323 316
144 147 158 146 143 131 120 121 127 140 134 86 60 63 64 72 82 87 79 57 60 89 36 14 58 31 2 356 2 335 324 315 324 318 332 337 337 335 338 336 332 328 322
169 167 170 164 157 153 151 151 141 128 124 99 47 48 46 47 53 65 83 119 119 125 73 46 53 18 342 12 16 349 329 331 328 321 322 325 324 339 339 334 333 328 325
180 180 179 176 166 158 140 113 100 83 69 63 28 3 7 25 47 56 53 57 146 168 195 218 204 172 289 324 352 129 291 279 308 306 304 311 321 329 327 331 329 328 327
196 182 172 168 162 156 144 143 141 143 160 199 202 212 2 23 36 47 60 66 29 246 222 239 232 242 210 269 305 303 247 237 278 304 305 306 317 318 322 329 325 328 332
182 170 168 158 148 146 139 149 148 138 147 126 108 84 39 15 27 32 38 47 39 356 318 288 264 259 233 236 252 287 294 303 264 264 292 307 313 300 305 308 314 324 328
152 155 156 154 151 145 139 138 143 144 138 129 128 130 21 342 3 10 16 14 16 14 331 316 305 283 268 271 266 255 254 264 279 272 278 294 298 299 301 298 304 319 325
Height
1526 1528 1529 1531 1532 1533 1534 1535 1536 1536 1537 1537 1538 1538 1539 1539 1539 1540 1540 1541 1541 1541 1541 1542 1542 1542 1542 1542 1542 1542 1543 1543 1543 1543 1543 1543 1543 1543 1543 1544 1544 1544 1544
1525 1527 1530 1531 1532 1534 1535 1535 1536 1537 1538 1538 1539 1539 1540 1540 1541 1541 1542 1542 1542 1542 1543 1543 1543 1543 1543 1543 1544 1544 1544 1544 1544 1544 1545 1545 1545 1545 1545 1545 1545 1545 1545
1525 1527 1529 1531 1532 1534 1535 1536 1537 1538 1538 1539 1540 1540 1541 1541 1542 1542 1543 1543 1543 1544 1544 1544 1544 1544 1544 1545 1545 1545 1545 1545 1545 1546 1546 1546 1546 1546 1546 1546 1546 1546 1546
1525 1527 1529 1531 1533 1534 1535 1537 1538 1538 1539 1540 1540 1541 1542 1542 1543 1543 1544 1544 1544 1545 1545 1545 1546 1546 1546 1546 1546 1546 1546 1547 1547 1547 1547 1547 1547 1548 1548 1548 1548 1547 1547
1526 1528 1529 1531 1533 1534 1536 1537 1538 1539 1540 1541 1541 1542 1542 1543 1544 1544 1544 1545 1545 1546 1546 1546 1547 1547 1547 1547 1547 1547 1547 1548 1548 1548 1548 1548 1548 1548 1548 1548 1548 1548 1548
1526 1528 1530 1532 1533 1535 1536 1537 1538 1540 1540 1541 1542 1542 1543 1544 1544 1545 1545 1545 1546 1546 1547 1547 1548 1548 1548 1548 1548 1548 1548 1549 1549 1549 1549 1549 1549 1549 1549 1549 1549 1549 1549
1526 1528 1530 1532 1533 1535 1536 1537 1538 1540 1541 1542 1542 1543 1543 1544 1545 1545 1546 1546 1546 1547 1547 1548 1548 1548 1549 1549 1549 1549 1549 1549 1549 1549 1550 1550 1550 1550 1550 1550 1550 1549 1549
1526 1528 1530 1532 1533 1535 1536 1537 1538 1540 1541 1542 1542 1543 1544 1544 1545 1545 1546 1546 1546 1547 1547 1548 1548 1549 1549 1549 1549 1549 1549 1550 1550 1550 1550 1550 1550 1550 1550 1550 1550 1550 1549
1527 1529 1530 1532 1533 1535 1536 1537 1539 1540 1541 1542 1543 1543 1544 1545 1545 1545 1546 1546 1547 1547 1547 1548 1548 1549 1549 1549 1549 1549 1549 1550 1550 1550 1550 1550 1550 1550 1550 1550 1550 1549 1549
1527 1529 1530 1532 1533 1535 1536 1537 1538 1539 1540 1541 1542 1543 1544 1544 1545 1545 1546 1546 1546 1547 1547 1548 1548 1548 1549 1549 1549 1549 1549 1549 1549 1549 1549 1550 1550 1550 1550 1550 1549 1549 1549
1526 1528 1529 1531 1533 1534 1535 1537 1538 1539 1540 1541 1542 1542 1543 1544 1544 1545 1545 1546 1546 1546 1547 1547 1548 1548 1548 1548 1549 1549 1549 1549 1549 1549 1549 1549 1549 1549 1549 1549 1549 1548 1548
1525 1527 1528 1530 1532 1533 1535 1536 1537 1538 1539 1540 1541 1542 1542 1543 1543 1544 1544 1545 1545 1546 1546 1546 1547 1547 1547 1548 1548 1548 1548 1548 1548 1548 1548 1548 1548 1548 1548 1548 1548 1548 1547
1524 1526 1527 1529 1531 1533 1534 1535 1536 1537 1538 1539 1540 1541 1541 1542 1542 1543 1543 1544 1544 1544 1545 1545 1545 1546 1546 1546 1547 1547 1547 1547 1547 1546 1546 1546 1546 1546 1546 1547 1546 1546 1546
1523 1525 1526 1528 1530 1531 1533 1534 1535 1536 1537 1538 1539 1539 1540 1540 1541 1541 1542 1542 1542 1543 1543 1543 1544 1544 1545 1545 1545 1545 1545 1545 1545 1545 1545 1545 1545 1545 1545 1545 1545 1544 1544
1522 1523 1525 1527 1528 1530 1532 1533 1534 1535 1536 1537 1537 1538 1539 1539 1539 1540 1540 1541 1541 1541 1541 1542 1542 1542 1543 1543 1543 1543 1543 1543 1543 1543 1542 1542 1542 1542 1542 1542 1542 1542 1542
1520 1522 1524 1525 1527 1529 1530 1531 1533 1534 1535 1535 1536 1537 1537 1538 1538 1538 1539 1539 1539 1539 1539 1540 1540 1540 1540 1541 1541 1541 1541 1541 1540 1540 1540 1540 1540 1540 1540 1540 1540 1539 1539
1519 1521 1522 1524 1526 1527 1528 1530 1531 1532 1533 1534 1535 1535 1536 1536 1536 1537 1537 1537 1538 1538 1538 1538 1538 1538 1538 1538 1538 1538 1538 1538 1538 1538 1537 1537 1537 1537 1537 1537 1537 1536 1536
1518 1519 1521 1523 1524 1525 1527 1528 1529 1530 1531 1532 1533 1533 1534 1534 1535 1535 1535 1535 1535 1536 1536 1536 1535 1535 1535 1535 1535 1535 1535 1535 1535 1535 1535 1534 1534 1534 1534 1534 1533 1533 1533
1516 1518 1519 1521 1522 1524 1525 1526 1527 1528 1529 1530 1531 1531 1532 1532 1533 1533 1533 1533 1533 1533 1533 1533 1533 1533 1532 1532 1532 1532 1532 1532 1532 1532 1532 1531 1531 1531 1530 1530 1530 1530 1529
1514 1515 1517 1519 1520 1522 1523 1524 1525 1526 1527 1528 1529 1529 1530 1530 1530 1531 1531 1531 1531 1531 1531 1531 1531 1531 1530 1530 1529 1529 1529 1529 1529 1529 1528 1528 1528 1527 1527 1527 1526 1526 1525
1510 1513 1515 1517 1518 1519 1520 1521 1523 1524 1525 1526 1526 1526 1527 1528 1528 1528 1529 1529 1529 1529 1529 1529 1529 1528 1528 1528 1527 1526 1526 1526 1526 1525 1525 1525 1525 1524 1524 1523 1523 1522 1521
1507 1510 1512 1514 1515 1517 1518 1520 1521 1521 1522 1523 1524 1524 1525 1525 1525 1526 1526 1526 1526 1526 1526 1526 1526 1526 1526 1526 1525 1524 1523 1523 1522 1522 1522 1522 1521 1521 1520 1520 1519 1518 1518
1505 1507 1509 1511 1513 1514 1516 1517 1518 1519 1520 1521 1521 1521 1522 1522 1523 1523 1523 1524 1523 1524 1523 1523 1523 1523 1523 1523 1523 1524 1523 1521 1520 1519 1519 1519 1518 1518 1517 1516 1515 1515 1514
1502 1504 1506 1508 1510 1512 1513 1514 1515 1516 1517 1518 1518 1519 1519 1519 1520 1520 1521 1521 1521 1521 1521 1521 1521 1521 1521 1520 1521 1521 1521 1520 1519 1516 1516 1515 1515 1514 1513 1512 1511 1510 1509
1499 1501 1503 1505 1507 1509 1510 1511 1512 1513 1514 1515 1516 1516 1517 1517 1517 1517 1518 1518 1518 1518 1517 1517 1517 1518 1517 1517 1517 1517 1517 1517 1516 1515 1512 1511 1510 1510 1509 1508 1507 1506 1505
1495 1497 1500 1502 1504 1506 1507 1508 1509 1510 1511 1512 1513 1513 1514 1514 1514 1514 1514 1514 1514 1514 1514 1514 1514 1514 1514 1514 1514 1514 1514 1514 1513 1512 1510 1508 1506 1505 1504 1504 1503 1501 1500